Regional Weather Roundup
Issued by NWS

Home | Current Version | Previous Version | Text Only | Print | Product List | Glossary On
Versions: 1 2 3 4 5 6 7 8 9 10 11 12 13 14 15 16 17 18 19 20 21 22 23 24 25 26 27 28 29 30 31 32 33 34 35 36 37 38 39 40 41 42 43 44 45 46 47 48 49 50
000
ASUS44 KLUB 281110
RWRTX
WEST TEXAS WEATHER ROUNDUP
NATIONAL WEATHER SERVICE LUBBOCK TX
600 AM CDT THU JUL 28 2016

NOTE: "FAIR" INDICATES FEW OR NO CLOUDS BELOW 12,000 FEET WITH NO
SIGNIFICANT WEATHER AND/OR OBSTRUCTIONS TO VISIBILITY.

TXZ004-006>008-010-012-014-016-OKZ002-281200-
TEXAS PANHANDLE/OKLAHOMA PANHANDLE

CITY           SKY/WX    TMP DP  RH WIND       PRES   REMARKS
AMARILLO       CLEAR     62  58  86 N7        30.14R
BORGER         CLEAR     67  61  81 CALM      30.12S
CANADIAN       CLEAR     68  64  88 CALM      30.06F
DALHART        CLEAR     65  55  70 NW6       30.16S
DUMAS          CLEAR     58  56  92 N6        30.15S
GUYMON         CLEAR     63  60  90 W5        30.11S
HEREFORD       CLEAR     59  54  83 N9        30.15R
PAMPA          CLEAR     64  61  90 NE7       30.12F
PERRYTON       CLEAR     69  61  77 E8        30.08F
$$

TXZ026-029-035-045-048-281200-
SOUTHERN PANHANDLE/SOUTH PLAINS/ROLLING PLAINS

CITY           SKY/WX    TMP DP  RH WIND       PRES   REMARKS
CHILDRESS      PTCLDY    76  65  68 CALM      30.00R
SEMINOLE       CLEAR     69  60  72 CALM      30.09R
LUBBOCK        PTCLDY    67  61  81 NE7       30.09R
PLAINVIEW      CLEAR     63  60  89 NW3       30.08R
SNYDER           N/A     73  67  83 CALM      30.05R
$$

TXZ052-054-060>062-072-078-127-140-154-169-281200-
PERMIAN BASIN/CONCHO VALLEY/BIG COUNTRY/EDWARDS PLATEAU

CITY           SKY/WX    TMP DP  RH WIND       PRES   REMARKS
ABILENE        CLEAR     74  67  78 CALM      30.01R
BIG SPRING     CLEAR     73  65  77 CALM      30.06R
BROWNWOOD      CLOUDY    73  68  83 SE3       30.00R
JUNCTION       CLEAR     73  69  87 CALM      30.01R
MIDLAND        CLEAR     75  66  73 SW5       30.04R
ODESSA         CLEAR     75  66  73 S5        30.06R
SAN ANGELO     PTCLDY    71  66  84 S3        30.00R
SONORA         CLEAR     73  68  83 SE5       30.06R
SWEETWATER     CLEAR     75  67  74 SW7       30.05R
WINK           CLEAR     74  67  78 E7        30.02R
$$

TXZ055-058-074-075-080-082-281200-
FAR WEST/SOUTHWEST MOUNTAINS/TRANS PECOS

CITY           SKY/WX    TMP DP  RH WIND       PRES   REMARKS
ALPINE         CLEAR     64  60  88 W7        30.17S
DRYDEN           N/A     73  70  90 CALM      29.99S
EL PASO        PTCLDY    78  60  53 CALM      30.07F
FORT STOCKTON  CLEAR     72  65  78 S8        30.02F
GUADALUPE PASS CLEAR     72  53  51 NE14      30.20F
MARFA          CLEAR     63  56  78 N8        30.16S
PECOS          CLEAR     74  65  74 E6        30.00S
PRESIDIO       CLOUDY    79  63  57 CALM      30.00F
$$

TXZ014-016-019-021>030-083-281200
TEXAS TECH WEST TEXAS MESONET/TEXAS PANHANDLE/NORTHERN SOUTH PLAINS

CITY           SKY/WX    TMP DP  RH WIND       PRES   REMARKS
ABERNATHY 5ENE   N/A     64  60  89 N5        30.11S
AMARILLO 9NNE    N/A     59  59 100 N1        30.15R
AMARILLO 7SSE    N/A     61  58  88 N6        30.16R
AMHERST 1NE      N/A     62  57  83 N6        30.13R
BOOTLEG 11WNW    N/A     61  55  78 NW7       30.21R
CANADIAN 6E      N/A     68  63  84 N14       30.05S
CAPROCK CYN SP   N/A     69  59  69 W8        30.07R
CHILDRESS 2NNE   N/A     74  66  76 N3        30.01S
CLARENDON 2WSW   N/A     65  59  79 NW9       30.09R
CLAUDE 12SW      N/A     64  59  83 N13       30.14R
DIMMITT 2NE      N/A     61  57  87 N7        30.15S
FLOYDADA 2NNE    N/A     63  59  86 W3        30.09S
FRIONA 2NE       N/A     58  53  81 N5        30.17R
GOODLETT 3W      N/A     74  66  76 NE3       29.98S
HART 3N          N/A     62  58  85 N6        30.15R
HEREFORD 2NW     N/A     59  53  80 N7        30.17S
MCLEAN 1E        N/A     64  60  86 NW9       30.09R
MEMPHIS 1NE      N/A     70  63  80 NW8       30.04R
MULESHOE 2SSW    N/A     60  56  87 NW5       30.14S
OLTON 6S         N/A     63  59  87 N6        30.12R
PALO DURO SP     N/A     64  58  81 N12       30.15R
PAMPA 2E         N/A     62  60  93 NE7       30.12F
PLAINVIEW 1S     N/A     66  60  82 SW2       30.10S
SILVERTON 7ESE   N/A     64  58  80 W5        30.08S
TULIA 2ENE       N/A     62  60  93 N7        30.14R
TURKEY 2WSW      N/A     70  59  68 NW7       30.05R
UMBARGER 3NNE    N/A     62  55  80 NW2       30.17R
$$

TXZ033>036-039>041-045>048-281200
TEXAS TECH WEST TEXAS MESONET/SOUTH PLAINS

CITY           SKY/WX    TMP DP  RH WIND       PRES   REMARKS
AIKEN 3WSW       N/A     63  60  89 NW6       30.11R
ANDREWS 2NE      N/A     72  65  79 SW2       30.10R
ANTON 6SSW       N/A     64  60  86 N7        30.11R
BROWNFIELD 2S    N/A     69  62  77 E2        30.10R
DENVR CTY 7WNW   N/A     64  60  85 NE5       30.12R
GAIL 2ESE        N/A     71  65  81 E1        30.05S
LAMESA 2SE       N/A     72  65  80 SE3       30.08R
LEVELLAND 4S     N/A     64  59  85 E3        30.11S
LUBBOCK 3WNW     N/A     68  60  76 NE5       30.11R
MORTON 1ENE      N/A     62  58  87 NW5       30.12R
ODONNELL 1N      N/A     72  63  72 S3        30.08R
PLAINS 3N        N/A     65  59  82 N5        30.12R
RALLS 1SE        N/A     69  60  74 N9        30.10S
REESE CENTER     N/A     65  59  80 E6        30.11R
SEAGRAVES 1SW    N/A     67  61  81 N5        30.10R
SEMINOLE 2NNE    N/A     69  62  79 N2        30.09R
SLATON 2NE       N/A     67  60  78 N3        30.09R
SNYDER 3E        N/A     73  68  84 SW5       30.05R
SUNDOWN 8SW      N/A     62  57  84 N5        30.11R
TAHOKA 3NNE      N/A     68  65  90 SE5       30.08F
WOLFFORTH 6SSW   N/A     65  59  81 E2        30.09F
$$

TXZ031-032-036>038-042>044-281200-
TEXAS TECH WEST TEXAS MESONET/ROLLING PLAINS

CITY           SKY/WX    TMP DP  RH WIND       PRES   REMARKS
ASPERMONT 3NE    N/A     73  65  75 W2        30.00S
FLUVANNA 3WNW    N/A     70  65  85 S3        30.06S
GRAHAM 5SSW      N/A     73  66  80 S1        30.07S
GUTHRIE 10WSW    N/A     71  64  77 CALM      30.00S
HASKELL 1NW      N/A     73  65  74 S3        29.99R
JAYTON 1SSE      N/A     72  66  79 W5        30.01S
KNOX CITY 3NW    N/A     74  67  78 S2        29.99R
LK A HENRY 1NW   N/A     73  64  75 CALM      30.04S
NORTHFIELD 1S    N/A     68  62  80 W6        30.03R
PADUCAH 10SW     N/A     73  66  80 W8        30.00F
POST 1NE         N/A     72  65  80 W3        30.05S
RRING SPRGS 3N   N/A     69  58  68 W6        30.05S
SEYMOUR 3NW      N/A     73  68  83 S2        29.98R
SPUR 1W          N/A     71  64  77 NW5       30.02S
WEINERT 2NNE     N/A     74  68  82 W2        29.99R
WHITE RVR 6NE    N/A     70  61  73 NW6       30.05F
$$

TXZ052-054-060>062-072-078-127-140-154-169-281200-
TEXAS TECH WEST TEXAS MESONET/PERMIAN BASIN/
CONCHO VALLEY/BIG COUNTRY/EDWARDS PLATEAU

CITY           SKY/WX    TMP DP  RH WIND       PRES   REMARKS
COYANOSA 2N      N/A     73  67  82 E6        30.03R
JUNCTION 1SSW    N/A     69  68  99 CALM      30.03R
MERTZON 3NNE     N/A     68  65  89 CALM      30.03R
SAN ANGELO 7NW   N/A     70  62  73 N2        30.03R
STRLNG CT 4WSW   N/A     67  64  89 NE2       30.05R
ST LAWRNCE 5SW   N/A     68  62  82 SE3       30.05R
SWEETWATR 11SW   N/A     71  66  87 S6        30.06R
WALL 1E          N/A     72  64  77 SE3       30.03R
$$

TXZ055-058-074-075-080-082-281200-
TEXAS TECH WEST TEXAS MESONET/FAR WEST/SOUTHWEST MOUNTAINS/TRANS PECOS

CITY           SKY/WX    TMP DP  RH WIND       PRES   REMARKS
PRSMN GAP BBNP   N/A     75  64  70 N10       30.03S
GUADLPE MTN NP   N/A     70  51  52 NW6       30.23S
$$




USA.gov is the U.S. government's official web portal to all federal, state and local government web resources and services.